Willmar, MN

6:36 PM CST on November 20, 2019 (GMT -0600)
Willmar

Weather History for KBDH - October, 2019

Change the Weather History Date:

Tuesday, October 22, 2019

  Actual Average (KBBB) Record (KBBB)
Temperature  
Mean Temperature 40 °F -  
Max Temperature 46 °F 58 °F 80 °F (1992)
Min Temperature 35 °F 36 °F 16 °F (1976)
Degree Days  
Heating Degree Days 24    
Moisture  
Dew Point 34 °F    
Average Humidity 76    
Maximum Humidity 100    
Minimum Humidity 53    
Precipitation  
Precipitation 0.02 in - - ()
Sea Level Pressure  
Sea Level Pressure 29.62 in    
Wind  
Wind Speed 23 mph ()    
Max Wind Speed 33 mph    
Max Gust Speed 47 mph    
Visibility 9.6 miles    
Events Rain    
Averages and records for this station are not official NWS values.
T = Trace of Precipitation, MM = Missing Value Source: Averaged Metar Reports

Daily Weather History Graph

Daily Weather History Graph

Search for Another Location

Airport or City:

Astronomy

Oct. 22, 2019 Rise Set
Actual Time 7:45 AM CDT 6:23 PM CDT
Civil Twilight 7:15 AM CDT 6:53 PM CDT
Nautical Twilight 6:41 AM CDT 7:28 PM CDT
Astronomical Twilight 6:06 AM CDT 8:02 PM CDT
Moon 12:33 AM CDT (10/22) 3:54 PM CDT (10/22)
Length of Visible Light 11h 38m
Length of Day
10h 38m
Last Quarter, 37% of the Moon is Illuminated
Oct 22
Last Quarter
Oct 27
New
Nov 4
First Quarter
Nov 12
Full
Nov 19
Last Quarter

Hourly Weather History & Observations

Time (CDT) Temp. Windchill Dew Point Humidity Pressure Visibility Wind Dir Wind Speed Gust Speed Precip Events Conditions
12:15 AM 42.8 °F 32.5 °F 41.0 °F 93% 29.40 in 4.0 mi NW 28.8 mph 38.0 mph N/A Rain Light Rain
12:16 AM 42.8 °F 33.1 °F 41.0 °F 93% 29.40 in 4.0 mi NW 25.3 mph 38.0 mph 0.01 in Rain Light Rain
12:37 AM 42.8 °F 31.9 °F 41.0 °F 93% 29.41 in 4.0 mi NW 32.2 mph 39.1 mph 0.01 in Rain Light Rain
12:55 AM 42.8 °F 32.7 °F 41.0 °F 93% 29.42 in 5.0 mi NW 27.6 mph 40.3 mph 0.01 in Rain Light Rain
1:17 AM 42.8 °F 32.1 °F 41.0 °F 93% 29.43 in 10.0 mi NW 31.1 mph 43.7 mph 0.01 in Rain Light Rain
1:35 AM 42.8 °F 32.5 °F 41.0 °F 93% 29.43 in 10.0 mi NW 28.8 mph 39.1 mph 0.01 in   Overcast
1:36 AM 42.8 °F 32.1 °F 41.0 °F 93% 29.44 in 10.0 mi NW 31.1 mph 39.1 mph 0.01 in   Overcast
1:58 AM 41.0 °F 29.8 °F 39.2 °F 93% 29.44 in 10.0 mi NW 29.9 mph 43.7 mph N/A   Overcast
2:15 AM 41.0 °F 29.7 °F 39.2 °F 93% 29.45 in 7.0 mi NW 31.1 mph 41.4 mph N/A   Overcast
2:16 AM 41.0 °F 29.7 °F 39.2 °F 93% 29.45 in 7.0 mi NW 31.1 mph 41.4 mph N/A   Overcast
2:38 AM 41.0 °F 29.7 °F 39.2 °F 93% 29.46 in 7.0 mi NW 31.1 mph 44.9 mph N/A   Overcast
2:55 AM 41.0 °F 29.3 °F 39.2 °F 93% 29.47 in 10.0 mi NW 33.4 mph 41.4 mph N/A   Overcast
2:56 AM 41.0 °F 29.5 °F 39.2 °F 93% 29.47 in 10.0 mi NW 32.2 mph 41.4 mph N/A   Overcast
3:18 AM 41.0 °F 30.0 °F 39.2 °F 93% 29.47 in 7.0 mi WNW 28.8 mph 47.2 mph N/A   Light Drizzle
3:35 AM 41.0 °F 30.0 °F 39.2 °F 93% 29.48 in 7.0 mi NW 28.8 mph 38.0 mph N/A   Light Drizzle
3:36 AM 39.2 °F 28.3 °F 39.2 °F 100% 29.48 in 7.0 mi NW 25.3 mph 38.0 mph N/A   Light Drizzle
3:58 AM 39.2 °F 27.4 °F 39.2 °F 100% 29.48 in 10.0 mi NW 29.9 mph 40.3 mph N/A   Overcast
4:15 AM 39.2 °F 28.7 °F 39.2 °F 100% 29.49 in 10.0 mi NW 23.0 mph 39.1 mph N/A   Overcast
4:16 AM 39.2 °F 28.5 °F 39.2 °F 100% 29.49 in 10.0 mi WNW 24.2 mph 39.1 mph N/A   Overcast
4:35 AM 39.2 °F 28.3 °F 39.2 °F 100% 29.50 in 10.0 mi WNW 25.3 mph 38.0 mph N/A   Overcast
4:39 AM 39.2 °F 27.2 °F 39.2 °F 100% 29.50 in 10.0 mi WNW 31.1 mph 38.0 mph N/A   Overcast
4:55 AM 39.2 °F 27.8 °F 37.4 °F 93% 29.51 in 10.0 mi WNW 27.6 mph 41.4 mph N/A   Overcast
5:15 AM 39.2 °F 27.8 °F 37.4 °F 93% 29.51 in 10.0 mi NW 27.6 mph 35.7 mph N/A   Overcast
5:16 AM 39.2 °F 28.0 °F 37.4 °F 93% 29.51 in 10.0 mi NW 26.5 mph 35.7 mph N/A   Overcast
5:36 AM 39.2 °F 28.0 °F 37.4 °F 93% 29.52 in 10.0 mi NW 26.5 mph 35.7 mph N/A   Overcast
5:55 AM 39.2 °F 29.0 °F 37.4 °F 93% 29.53 in 10.0 mi WNW 21.9 mph 31.1 mph N/A   Overcast
5:56 AM 39.2 °F 29.0 °F 37.4 °F 93% 29.53 in 10.0 mi WNW 21.9 mph 31.1 mph N/A   Overcast
6:17 AM 39.2 °F 27.4 °F 37.4 °F 93% 29.53 in 10.0 mi NW 29.9 mph 36.8 mph N/A   Overcast
6:35 AM 39.2 °F 28.5 °F 37.4 °F 93% 29.54 in 10.0 mi WNW 24.2 mph 33.4 mph N/A   Overcast
6:36 AM 39.2 °F 27.8 °F 37.4 °F 93% 29.54 in 10.0 mi WNW 27.6 mph 34.5 mph N/A   Overcast
7:15 AM 39.2 °F 29.0 °F 37.4 °F 93% 29.56 in 10.0 mi WNW 21.9 mph 32.2 mph N/A   Overcast
7:16 AM 39.2 °F 29.3 °F 37.4 °F 93% 29.56 in 10.0 mi WNW 20.7 mph 32.2 mph N/A   Overcast
7:38 AM 37.4 °F 26.1 °F 37.4 °F 100% 29.56 in 10.0 mi WNW 24.2 mph 35.7 mph N/A   Overcast
7:55 AM 37.4 °F 25.4 °F 37.4 °F 100% 29.56 in 10.0 mi WNW 27.6 mph 39.1 mph N/A   Overcast
7:56 AM 37.4 °F 25.6 °F 37.4 °F 100% 29.57 in 10.0 mi WNW 26.5 mph 39.1 mph N/A   Overcast
8:18 AM 39.2 °F 28.5 °F 35.6 °F 87% 29.57 in 10.0 mi WNW 24.2 mph 36.8 mph N/A   Overcast
8:35 AM 39.2 °F 28.0 °F 35.6 °F 87% 29.57 in 10.0 mi WNW 26.5 mph 38.0 mph N/A   Overcast
8:36 AM 39.2 °F 27.8 °F 35.6 °F 87% 29.57 in 10.0 mi WNW 27.6 mph 38.0 mph N/A   Overcast
8:55 AM 39.2 °F 28.0 °F 33.8 °F 81% 29.58 in 10.0 mi WNW 26.5 mph 33.4 mph N/A   Overcast
8:59 AM 39.2 °F 27.0 °F 33.8 °F 81% 29.58 in 10.0 mi NW 32.2 mph 36.8 mph N/A   Overcast
9:15 AM 39.2 °F 28.5 °F 33.8 °F 81% 29.58 in 10.0 mi WNW 24.2 mph 36.8 mph N/A   Overcast
9:35 AM 39.2 °F 29.3 °F 33.8 °F 81% 29.59 in 10.0 mi WNW 20.7 mph 31.1 mph N/A   Overcast
9:39 AM 39.2 °F 28.5 °F 33.8 °F 81% 29.59 in 10.0 mi WNW 24.2 mph 31.1 mph N/A   Overcast
9:55 AM 39.2 °F 28.0 °F 33.8 °F 81% 29.59 in 10.0 mi WNW 26.5 mph 34.5 mph N/A   Overcast
10:16 AM 39.2 °F 28.7 °F 33.8 °F 81% 29.60 in 10.0 mi WNW 23.0 mph 34.5 mph N/A   Overcast
10:37 AM 39.2 °F 28.3 °F 33.8 °F 81% 29.61 in 10.0 mi WNW 25.3 mph 38.0 mph N/A   Overcast
10:55 AM 39.2 °F 28.7 °F 32.0 °F 75% 29.62 in 10.0 mi WNW 23.0 mph 34.5 mph N/A   Overcast
10:56 AM 39.2 °F 29.0 °F 32.0 °F 75% 29.62 in 10.0 mi WNW 21.9 mph 34.5 mph N/A   Overcast
11:17 AM 39.2 °F 27.8 °F 32.0 °F 75% 29.62 in 10.0 mi WNW 27.6 mph 34.5 mph N/A   Overcast
11:35 AM 41.0 °F 30.2 °F 32.0 °F 70% 29.63 in 10.0 mi WNW 27.6 mph 35.7 mph N/A   Overcast
11:36 AM 41.0 °F 30.7 °F 32.0 °F 70% 29.63 in 10.0 mi WNW 25.3 mph 35.7 mph N/A   Overcast
11:57 AM 41.0 °F 30.5 °F 32.0 °F 70% 29.63 in 10.0 mi WNW 26.5 mph 35.7 mph N/A   Overcast
12:15 PM 42.8 °F 33.1 °F 33.8 °F 70% 29.63 in 10.0 mi WNW 25.3 mph 36.8 mph N/A   Overcast
12:16 PM 42.8 °F 32.7 °F 33.8 °F 70% 29.63 in 10.0 mi WNW 27.6 mph 36.8 mph N/A   Overcast
12:37 PM 42.8 °F 33.3 °F 33.8 °F 70% 29.63 in 10.0 mi WNW 24.2 mph 32.2 mph N/A   Overcast
12:55 PM 44.6 °F 34.9 °F 33.8 °F 66% 29.63 in 10.0 mi WNW 28.8 mph 36.8 mph N/A   Mostly Cloudy
12:56 PM 44.6 °F 34.6 °F 32.0 °F 61% 29.63 in 10.0 mi WNW 31.1 mph 38.0 mph N/A   Mostly Cloudy
1:17 PM 44.6 °F 35.5 °F 32.0 °F 61% 29.63 in 10.0 mi WNW 25.3 mph 38.0 mph N/A   Scattered Clouds
1:35 PM 44.6 °F 36.4 °F 33.8 °F 66% 29.63 in 10.0 mi WNW 20.7 mph 32.2 mph N/A   Scattered Clouds
1:36 PM 44.6 °F 36.9 °F 33.8 °F 66% 29.63 in 10.0 mi WNW 18.4 mph 32.2 mph N/A   Scattered Clouds
1:57 PM 44.6 °F 35.3 °F 33.8 °F 66% 29.64 in 10.0 mi WNW 26.5 mph 35.7 mph N/A   Overcast
2:15 PM 46.4 °F 37.4 °F 33.8 °F 62% 29.64 in 10.0 mi WNW 28.8 mph 38.0 mph N/A   Overcast
2:16 PM 46.4 °F 37.5 °F 33.8 °F 62% 29.64 in 10.0 mi WNW 27.6 mph 38.0 mph N/A   Overcast
2:37 PM 46.4 °F 37.5 °F 33.8 °F 62% 29.64 in 10.0 mi WNW 27.6 mph 38.0 mph N/A   Mostly Cloudy
2:55 PM 46.4 °F 38.3 °F 33.8 °F 62% 29.65 in 10.0 mi NW 23.0 mph 34.5 mph N/A   Mostly Cloudy
2:56 PM 46.4 °F 38.1 °F 33.8 °F 62% 29.65 in 10.0 mi WNW 24.2 mph 34.5 mph N/A   Mostly Cloudy
3:17 PM 46.4 °F 38.3 °F 33.8 °F 62% 29.65 in 10.0 mi NW 23.0 mph 33.4 mph N/A   Mostly Cloudy
3:35 PM 46.4 °F 38.1 °F 32.0 °F 57% 29.66 in 10.0 mi WNW 24.2 mph 33.4 mph N/A   Overcast
3:36 PM 46.4 °F 38.7 °F 32.0 °F 57% 29.66 in 10.0 mi WNW 20.7 mph 33.4 mph N/A   Overcast
3:58 PM 46.4 °F 37.9 °F 30.2 °F 53% 29.67 in 10.0 mi WNW 25.3 mph 32.2 mph N/A   Overcast
4:16 PM 46.4 °F 37.9 °F 30.2 °F 53% 29.68 in 10.0 mi NW 25.3 mph 29.9 mph N/A   Overcast
4:35 PM 46.4 °F 38.7 °F 30.2 °F 53% 29.68 in 10.0 mi WNW 20.7 mph 31.1 mph N/A   Overcast
4:36 PM 46.4 °F 38.7 °F 30.2 °F 53% 29.68 in 10.0 mi WNW 20.7 mph 31.1 mph N/A   Overcast
4:58 PM 46.4 °F 38.5 °F 30.2 °F 53% 29.69 in 10.0 mi WNW 21.9 mph 32.2 mph N/A   Overcast
5:15 PM 46.4 °F 38.7 °F 30.2 °F 53% 29.70 in 10.0 mi WNW 20.7 mph 32.2 mph N/A   Overcast
5:35 PM 46.4 °F 39.0 °F 30.2 °F 53% 29.70 in 10.0 mi WNW 19.6 mph 24.2 mph N/A   Overcast
5:36 PM 46.4 °F 38.7 °F 30.2 °F 53% 29.70 in 10.0 mi WNW 20.7 mph 26.5 mph N/A   Overcast
5:56 PM 46.4 °F 39.2 °F 30.2 °F 53% 29.71 in 10.0 mi WNW 18.4 mph 26.5 mph N/A   Overcast
6:15 PM 46.4 °F 39.2 °F 30.2 °F 53% 29.72 in 10.0 mi WNW 18.4 mph 26.5 mph N/A   Overcast
6:16 PM 46.4 °F 39.2 °F 30.2 °F 53% 29.72 in 10.0 mi WNW 18.4 mph 26.5 mph N/A   Overcast
6:36 PM 44.6 °F 36.9 °F 30.2 °F 57% 29.73 in 10.0 mi WNW 18.4 mph 25.3 mph N/A   Mostly Cloudy
6:55 PM 44.6 °F 38.1 °F 30.2 °F 57% 29.74 in 10.0 mi West 13.8 mph 19.6 mph N/A   Mostly Cloudy
7:17 PM 44.6 °F 38.1 °F 30.2 °F 57% 29.74 in 10.0 mi West 13.8 mph 18.4 mph N/A   Mostly Cloudy
7:35 PM 44.6 °F 37.8 °F 30.2 °F 57% 29.75 in 10.0 mi West 15.0 mph 20.7 mph N/A   Mostly Cloudy
7:36 PM 44.6 °F 37.8 °F 30.2 °F 57% 29.75 in 10.0 mi WNW 15.0 mph 20.7 mph N/A   Mostly Cloudy
7:57 PM 42.8 °F 36.2 °F 30.2 °F 61% 29.75 in 10.0 mi West 12.7 mph 20.7 mph N/A   Scattered Clouds
8:15 PM 42.8 °F 36.2 °F 30.2 °F 61% 29.76 in 10.0 mi West 12.7 mph - N/A   Clear
8:16 PM 42.8 °F 36.2 °F 30.2 °F 61% 29.76 in 10.0 mi West 12.7 mph - N/A   Clear
8:37 PM 42.8 °F 35.4 °F 30.2 °F 61% 29.76 in 10.0 mi West 15.0 mph 20.7 mph N/A   Clear
8:55 PM 41.0 °F 34.7 °F 30.2 °F 65% 29.76 in 10.0 mi West 10.4 mph - N/A   Clear
8:56 PM 41.0 °F 34.3 °F 30.2 °F 65% 29.76 in 10.0 mi West 11.5 mph - N/A   Clear
9:18 PM 39.2 °F 32.5 °F 30.2 °F 70% 29.76 in 10.0 mi West 10.4 mph - N/A   Clear
9:35 PM 39.2 °F 32.5 °F 30.2 °F 70% 29.76 in 10.0 mi West 10.4 mph - N/A   Clear
9:36 PM 39.2 °F 32.5 °F 30.2 °F 70% 29.76 in 10.0 mi West 10.4 mph - N/A   Clear
9:58 PM 39.2 °F 32.0 °F 30.2 °F 70% 29.77 in 10.0 mi West 11.5 mph - N/A   Clear
10:15 PM 39.2 °F 33.0 °F 30.2 °F 70% 29.77 in 10.0 mi West 9.2 mph - N/A   Clear
10:16 PM 39.2 °F 32.5 °F 30.2 °F 70% 29.77 in 10.0 mi West 10.4 mph - N/A   Clear
10:38 PM 37.4 °F 29.8 °F 30.2 °F 75% 29.77 in 10.0 mi West 11.5 mph 17.3 mph N/A   Clear
10:56 PM 37.4 °F 29.3 °F 30.2 °F 75% 29.77 in 10.0 mi West 12.7 mph - N/A   Clear
11:15 PM 37.4 °F 30.8 °F 30.2 °F 75% 29.77 in 10.0 mi West 9.2 mph - N/A   Clear
11:16 PM 37.4 °F 30.8 °F 30.2 °F 75% 29.77 in 10.0 mi West 9.2 mph - N/A   Clear
11:36 PM 37.4 °F 30.8 °F 30.2 °F 75% 29.76 in 10.0 mi West 9.2 mph - N/A   Clear
11:55 PM 35.6 °F 29.2 °F 30.2 °F 81% 29.77 in 10.0 mi West 8.1 mph - N/A   Clear
11:56 PM 35.6 °F 29.2 °F 30.2 °F 81% 29.77 in 10.0 mi West 8.1 mph - N/A   Clear